| time (UTC) | temp F | wind direction | speed MPH | gust MPH | rain 1hr in | rain 24hr in | rain mn in | humidity % | barometer mb |
| 20260505223802 | 81 | 191 | 4.0 | 6.0 | 0.00 | 0.00 | 0.00 | 32 | 1008.6 |
| 20260505223259 | 81 | 199 | 4.0 | 7.0 | 0.00 | 0.00 | 0.00 | 32 | 1008.6 |
| 20260505222755 | 81 | 240 | 4.0 | 4.0 | 0.00 | 0.00 | 0.00 | 33 | 1008.5 |
| 20260505222251 | 81 | 242 | 2.0 | 3.0 | 0.00 | 0.00 | 0.00 | 33 | 1008.5 |
| 20260505221748 | 82 | 195 | 3.0 | 3.0 | 0.00 | 0.00 | 0.00 | 34 | 1008.5 |
| 20260505221245 | 82 | 218 | 4.0 | 6.0 | 0.00 | 0.00 | 0.00 | 32 | 1008.5 |
| 20260505220742 | 82 | 184 | 4.0 | 7.0 | 0.00 | 0.00 | 0.00 | 33 | 1008.6 |
| 20260505220239 | 82 | 211 | 4.0 | 4.0 | 0.00 | 0.00 | 0.00 | 32 | 1008.5 |
| 20260505215737 | 83 | 233 | 3.0 | 4.0 | 0.00 | 0.00 | 0.00 | 32 | 1008.4 |
| 20260505215235 | 82 | 230 | 6.0 | 7.0 | 0.00 | 0.00 | 0.00 | 31 | 1008.4 |
| 20260505214733 | 82 | 204 | 5.0 | 6.0 | 0.00 | 0.00 | 0.00 | 31 | 1008.4 |
| 20260505214230 | 82 | 169 | 3.0 | 3.0 | 0.00 | 0.00 | 0.00 | 31 | 1008.5 |
| 20260505213727 | 82 | 225 | 4.0 | 6.0 | 0.00 | 0.00 | 0.00 | 31 | 1008.3 |
| 20260505213224 | 82 | 162 | 3.0 | 4.0 | 0.00 | 0.00 | 0.00 | 31 | 1008.4 |
| 20260505212720 | 82 | 221 | 5.0 | 6.0 | 0.00 | 0.00 | 0.00 | 31 | 1008.3 |
| 20260505212217 | 82 | 235 | 3.0 | 4.0 | 0.00 | 0.00 | 0.00 | 32 | 1008.6 |
| 20260505211714 | 83 | 203 | 7.0 | 8.0 | 0.00 | 0.00 | 0.00 | 31 | 1008.4 |
| 20260505211212 | 83 | 211 | 5.0 | 7.0 | 0.00 | 0.00 | 0.00 | 32 | 1008.3 |
| 20260505210708 | 84 | 176 | 5.0 | 8.0 | 0.00 | 0.00 | 0.00 | 31 | 1008.1 |
| 20260505210205 | 83 | 220 | 8.0 | 10.0 | 0.00 | 0.00 | 0.00 | 31 | 1008.3 |
| 20260505205702 | 84 | 217 | 5.0 | 6.0 | 0.00 | 0.00 | 0.00 | 31 | 1008.2 |
| 20260505205200 | 84 | 205 | 4.0 | 6.0 | 0.00 | 0.00 | 0.00 | 32 | 1008.3 |
| 20260505204657 | 85 | 214 | 6.0 | 9.0 | 0.00 | 0.00 | 0.00 | 31 | 1008.1 |
| 20260505204155 | 84 | 188 | 4.0 | 4.0 | 0.00 | 0.00 | 0.00 | 32 | 1008.3 |
| 20260505203652 | 84 | 189 | 4.0 | 4.0 | 0.00 | 0.00 | 0.00 | 32 | 1008.2 |
| 20260505203148 | 85 | 165 | 6.0 | 8.0 | 0.00 | 0.00 | 0.00 | 31 | 1008.2 |
| 20260505202644 | 85 | 189 | 4.0 | 6.0 | 0.00 | 0.00 | 0.00 | 34 | 1008.3 |
| 20260505202140 | 85 | 188 | 4.0 | 6.0 | 0.00 | 0.00 | 0.00 | 32 | 1008.4 |
| 20260505201637 | 85 | 174 | 4.0 | 4.0 | 0.00 | 0.00 | 0.00 | 32 | 1008.3 |
| 20260505201135 | 85 | 210 | 5.0 | 6.0 | 0.00 | 0.00 | 0.00 | 34 | 1008.3 |
| 20260505200633 | 85 | 182 | 4.0 | 6.0 | 0.00 | 0.00 | 0.00 | 34 | 1008.3 |
| 20260505200129 | 84 | 198 | 4.0 | 4.0 | 0.00 | 0.00 | 0.00 | 34 | 1008.3 |
| 20260505195625 | 85 | 142 | 5.0 | 7.0 | 0.00 | 0.00 | 0.00 | 33 | 1008.5 |
| 20260505195123 | 85 | 212 | 6.0 | 8.0 | 0.00 | 0.00 | 0.00 | 33 | 1008.5 |
| 20260505194620 | 84 | 221 | 5.0 | 6.0 | 0.00 | 0.00 | 0.00 | 34 | 1008.3 |
| 20260505194116 | 84 | 209 | 4.0 | 6.0 | 0.00 | 0.00 | 0.00 | 36 | 1008.4 |
| 20260505193613 | 84 | 234 | 4.0 | 6.0 | 0.00 | 0.00 | 0.00 | 34 | 1008.8 |
| 20260505193110 | 83 | 249 | 9.0 | 9.0 | 0.00 | 0.00 | 0.00 | 35 | 1008.7 |
| 20260505192609 | 83 | 202 | 5.0 | 6.0 | 0.00 | 0.00 | 0.00 | 35 | 1008.9 |
| 20260505192106 | 83 | 174 | 5.0 | 7.0 | 0.00 | 0.00 | 0.00 | 37 | 1008.9 |
| 20260505191604 | 83 | 154 | 5.0 | 8.0 | 0.00 | 0.00 | 0.00 | 38 | 1008.9 |
| 20260505191101 | 83 | 225 | 2.0 | 3.0 | 0.00 | 0.00 | 0.00 | 38 | 1008.9 |
| 20260505190556 | 83 | 193 | 4.0 | 6.0 | 0.00 | 0.00 | 0.00 | 37 | 1009.1 |
| 20260505190052 | 83 | 209 | 5.0 | 7.0 | 0.00 | 0.00 | 0.00 | 37 | 1009.0 |
| 20260505185549 | 83 | 250 | 4.0 | 6.0 | 0.00 | 0.00 | 0.00 | 36 | 1009.4 |
| 20260505185045 | 83 | 208 | 4.0 | 4.0 | 0.00 | 0.00 | 0.00 | 36 | 1009.3 |
| 20260505184542 | 83 | 225 | 4.0 | 4.0 | 0.00 | 0.00 | 0.00 | 34 | 1009.4 |
| 20260505184039 | 83 | 196 | 4.0 | 4.0 | 0.00 | 0.00 | 0.00 | 36 | 1009.4 |
| 20260505183535 | 83 | 203 | 3.0 | 4.0 | 0.00 | 0.00 | 0.00 | 35 | 1009.6 |
| 20260505183033 | 82 | 213 | 2.0 | 2.0 | 0.00 | 0.00 | 0.00 | 36 | 1009.4 |
| 20260505182529 | 82 | 197 | 3.0 | 4.0 | 0.00 | 0.00 | 0.00 | 39 | 1009.5 |
| 20260505182026 | 82 | 197 | 4.0 | 4.0 | 0.00 | 0.00 | 0.00 | 34 | 1009.6 |
| 20260505181523 | 82 | 174 | 4.0 | 4.0 | 0.00 | 0.00 | 0.00 | 35 | 1009.6 |
| 20260505181020 | 82 | 251 | 4.0 | 8.0 | 0.00 | 0.00 | 0.00 | 35 | 1009.7 |
| 20260505180516 | 82 | 221 | 3.0 | 3.0 | 0.00 | 0.00 | 0.00 | 37 | 1009.7 |
| 20260505180014 | 82 | 182 | 4.0 | 4.0 | 0.00 | 0.00 | 0.00 | 36 | 1009.8 |
| 20260505175508 | 82 | 188 | 2.0 | 3.0 | 0.00 | 0.00 | 0.00 | 37 | 1009.9 |
| 20260505175006 | 81 | 145 | 4.0 | 6.0 | 0.00 | 0.00 | 0.00 | 37 | 1010.1 |
| 20260505174503 | 82 | 165 | 4.0 | 4.0 | 0.00 | 0.00 | 0.00 | 38 | 1010.2 |
| 20260505173959 | 81 | 184 | 3.0 | 3.0 | 0.00 | 0.00 | 0.00 | 38 | 1010.2 |
| 20260505173455 | 82 | 176 | 5.0 | 7.0 | 0.00 | 0.00 | 0.00 | 39 | 1010.2 |
| 20260505172952 | 82 | 230 | 4.0 | 4.0 | 0.00 | 0.00 | 0.00 | 37 | 1010.2 |
| 20260505172451 | 81 | 210 | 3.0 | 3.0 | 0.00 | 0.00 | 0.00 | 38 | 1010.3 |
| 20260505171950 | 82 | 230 | 5.0 | 7.0 | 0.00 | 0.00 | 0.00 | 36 | 1010.4 |
| 20260505171447 | 81 | 224 | 2.0 | 2.0 | 0.00 | 0.00 | 0.00 | 40 | 1010.4 |
| 20260505170944 | 81 | 212 | 3.0 | 4.0 | 0.00 | 0.00 | 0.00 | 38 | 1010.4 |
| 20260505170440 | 81 | 192 | 4.0 | 6.0 | 0.00 | 0.00 | 0.00 | 41 | 1010.3 |
| 20260505165936 | 81 | 243 | 3.0 | 3.0 | 0.00 | 0.00 | 0.00 | 38 | 1010.5 |
| 20260505165432 | 81 | 198 | 4.0 | 7.0 | 0.00 | 0.00 | 0.00 | 40 | 1010.6 |
| 20260505164927 | 81 | 199 | 3.0 | 3.0 | 0.00 | 0.00 | 0.00 | 39 | 1010.6 |
| 20260505164424 | 80 | 186 | 2.0 | 3.0 | 0.00 | 0.00 | 0.00 | 40 | 1010.7 |
| 20260505163922 | 81 | 234 | 2.0 | 3.0 | 0.00 | 0.00 | 0.00 | 39 | 1011.1 |
| 20260505163421 | 80 | 233 | 3.0 | 4.0 | 0.00 | 0.00 | 0.00 | 38 | 1011.0 |
| 20260505162920 | 80 | 246 | 4.0 | 7.0 | 0.00 | 0.00 | 0.00 | 39 | 1011.2 |
| 20260505162415 | 80 | 254 | 4.0 | 4.0 | 0.00 | 0.00 | 0.00 | 39 | 1011.1 |
| 20260505161912 | 81 | 208 | 4.0 | 4.0 | 0.00 | 0.00 | 0.00 | 39 | 1011.1 |
| 20260505161409 | 80 | 240 | 3.0 | 4.0 | 0.00 | 0.00 | 0.00 | 39 | 1011.1 |
| 20260505160906 | 80 | 220 | 5.0 | 7.0 | 0.00 | 0.00 | 0.00 | 40 | 1011.1 |
| 20260505160404 | 80 | 204 | 3.0 | 3.0 | 0.00 | 0.00 | 0.00 | 41 | 1011.3 |
| 20260505153343 | 80 | 290 | 3.0 | 4.0 | 0.00 | 0.00 | 0.00 | 41 | 1011.5 |
| 20260505152840 | 80 | 208 | 4.0 | 6.0 | 0.00 | 0.00 | 0.00 | 41 | 1011.5 |
| 20260505152338 | 80 | 223 | 4.0 | 4.0 | 0.00 | 0.00 | 0.00 | 41 | 1011.6 |
| 20260505151837 | 80 | 223 | 3.0 | 3.0 | 0.00 | 0.00 | 0.00 | 42 | 1011.4 |
| 20260505151334 | 80 | 209 | 4.0 | 4.0 | 0.00 | 0.00 | 0.00 | 41 | 1011.1 |
| 20260505150831 | 79 | 221 | 3.0 | 4.0 | 0.00 | 0.00 | 0.00 | 43 | 1011.4 |
| 20260505150329 | 79 | 188 | 6.0 | 7.0 | 0.00 | 0.00 | 0.00 | 42 | 1011.4 |
| 20260505140258 | 75 | 189 | 2.0 | 2.0 | 0.00 | 0.00 | 0.00 | 53 | 1011.7 |
| 20260505130222 | 67 | 225 | 2.0 | 2.0 | 0.00 | 0.00 | 0.00 | 61 | 1012.3 |
| 20260505124712 | 66 | 179 | 3.0 | 4.0 | 0.00 | 0.00 | 0.00 | 64 | 1012.4 |
| 20260505124209 | 65 | 183 | 2.0 | 2.0 | 0.00 | 0.00 | 0.00 | 64 | 1012.4 |
| 20260505123705 | 65 | 185 | 1.0 | 2.0 | 0.00 | 0.00 | 0.00 | 65 | 1012.6 |
| 20260505123202 | 65 | 180 | 2.0 | 2.0 | 0.00 | 0.00 | 0.00 | 65 | 1012.5 |
| 20260505122658 | 64 | 178 | 2.0 | 2.0 | 0.00 | 0.00 | 0.00 | 66 | 1012.5 |
| 20260505122156 | 64 | 202 | 2.0 | 2.0 | 0.00 | 0.00 | 0.00 | 66 | 1012.5 |
| 20260505121652 | 64 | 212 | 1.0 | 1.0 | 0.00 | 0.00 | 0.00 | 67 | 1012.7 |
| 20260505121149 | 63 | 214 | 1.0 | 2.0 | 0.00 | 0.00 | 0.00 | 68 | 1012.5 |
| 20260505120645 | 63 | 226 | 1.0 | 1.0 | 0.00 | 0.00 | 0.00 | 70 | 1012.6 |
| 20260505120141 | 62 | 217 | 1.0 | 1.0 | 0.00 | 0.00 | 0.00 | 70 | 1012.6 |
| 20260505115635 | 62 | 213 | 1.0 | 1.0 | 0.00 | 0.00 | 0.00 | 71 | 1012.5 |
| 20260505115133 | 61 | 226 | 1.0 | 1.0 | 0.00 | 0.00 | 0.00 | 72 | 1012.5 |
| 20260505114630 | 61 | 225 | 1.0 | 1.0 | 0.00 | 0.00 | 0.00 | 73 | 1012.4 |
| 20260505114126 | 60 | 229 | 1.0 | 1.0 | 0.00 | 0.00 | 0.00 | 74 | 1012.3 |
| 20260505113623 | 60 | 229 | 1.0 | 1.0 | 0.00 | 0.00 | 0.00 | 76 | 1012.3 |
| 20260505113119 | 59 | 233 | 0.0 | 1.0 | 0.00 | 0.00 | 0.00 | 78 | 1012.2 |
| 20260505112615 | 58 | 233 | 0.0 | 0.0 | 0.00 | 0.00 | 0.00 | 80 | 1012.2 |
| 20260505112115 | 57 | 234 | 0.0 | 1.0 | 0.00 | 0.00 | 0.00 | 83 | 1012.1 |
| 20260505111613 | 56 | 234 | 0.0 | 0.0 | 0.00 | 0.00 | 0.00 | 85 | 1012.1 |
| 20260505111110 | 55 | 235 | 1.0 | 1.0 | 0.00 | 0.00 | 0.00 | 88 | 1012.0 |
| 20260505110606 | 54 | 239 | 0.0 | 0.0 | 0.00 | 0.00 | 0.00 | 91 | 1012.0 |
| 20260505102039 | 52 | 239 | 0.0 | 0.0 | 0.00 | 0.00 | 0.00 | 90 | 1011.3 |
| 20260505101537 | 52 | 240 | 0.0 | 0.0 | 0.00 | 0.00 | 0.00 | 91 | 1011.4 |
| 20260505101033 | 52 | 240 | 0.0 | 0.0 | 0.00 | 0.00 | 0.00 | 90 | 1011.1 |
| 20260505100530 | 52 | 240 | 0.0 | 0.0 | 0.00 | 0.00 | 0.00 | 90 | 1011.2 |
| 20260505100027 | 53 | 240 | 0.0 | 0.0 | 0.00 | 0.00 | 0.00 | 89 | 1011.3 |
| 20260505095523 | 53 | 240 | 0.0 | 0.0 | 0.00 | 0.00 | 0.00 | 89 | 1011.4 |
| 20260505095019 | 53 | 240 | 0.0 | 0.0 | 0.00 | 0.00 | 0.00 | 88 | 1011.4 |
| 20260505094516 | 53 | 240 | 0.0 | 0.0 | 0.00 | 0.00 | 0.00 | 87 | 1011.3 |
| 20260505094013 | 53 | 240 | 0.0 | 0.0 | 0.00 | 0.00 | 0.00 | 86 | 1011.2 |
| 20260505093509 | 54 | 240 | 0.0 | 0.0 | 0.00 | 0.00 | 0.00 | 85 | 1011.2 |
| 20260505093006 | 55 | 240 | 0.0 | 0.0 | 0.00 | 0.00 | 0.00 | 84 | 1011.3 |
| 20260505092504 | 56 | 240 | 0.0 | 0.0 | 0.00 | 0.00 | 0.00 | 82 | 1011.3 |
| 20260505092002 | 57 | 240 | 0.0 | 0.0 | 0.00 | 0.00 | 0.00 | 81 | 1011.2 |
| 20260505091459 | 57 | 240 | 1.0 | 1.0 | 0.00 | 0.00 | 0.00 | 81 | 1011.2 |
| 20260505090957 | 56 | 242 | 0.0 | 1.0 | 0.00 | 0.00 | 0.00 | 82 | 1011.3 |
| 20260505090455 | 56 | 235 | 1.0 | 1.0 | 0.00 | 0.00 | 0.00 | 83 | 1011.0 |
| 20260505085952 | 55 | 233 | 0.0 | 0.0 | 0.00 | 0.00 | 0.00 | 84 | 1011.0 |
| 20260505085449 | 55 | 233 | 0.0 | 0.0 | 0.00 | 0.00 | 0.00 | 85 | 1011.1 |
| 20260505084948 | 54 | 233 | 0.0 | 1.0 | 0.00 | 0.00 | 0.00 | 85 | 1011.3 |
| 20260505084446 | 54 | 233 | 0.0 | 0.0 | 0.00 | 0.00 | 0.00 | 83 | 1010.9 |
| 20260505083943 | 55 | 233 | 0.0 | 0.0 | 0.00 | 0.00 | 0.00 | 83 | 1010.8 |
| 20260505083440 | 55 | 232 | 0.0 | 0.0 | 0.00 | 0.00 | 0.00 | 83 | 1010.9 |
| 20260505082936 | 56 | 232 | 0.0 | 0.0 | 0.00 | 0.00 | 0.00 | 81 | 1011.0 |
| 20260505082432 | 57 | 232 | 0.0 | 0.0 | 0.00 | 0.00 | 0.00 | 81 | 1011.0 |
| 20260505081930 | 57 | 232 | 1.0 | 1.0 | 0.00 | 0.00 | 0.00 | 80 | 1010.9 |
| 20260505081426 | 57 | 232 | 0.0 | 0.0 | 0.00 | 0.00 | 0.00 | 79 | 1010.8 |
| 20260505080923 | 58 | 232 | 0.0 | 1.0 | 0.00 | 0.00 | 0.00 | 78 | 1010.8 |
| 20260505080419 | 58 | 232 | 0.0 | 0.0 | 0.00 | 0.00 | 0.00 | 77 | 1010.6 |
| 20260505075914 | 58 | 232 | 0.0 | 0.0 | 0.00 | 0.00 | 0.00 | 76 | 1010.6 |
| 20260505075412 | 59 | 232 | 0.0 | 0.0 | 0.00 | 0.00 | 0.00 | 76 | 1010.7 |
| 20260505074909 | 59 | 233 | 0.0 | 1.0 | 0.00 | 0.00 | 0.00 | 76 | 1010.6 |
| 20260505074406 | 59 | 233 | 1.0 | 1.0 | 0.00 | 0.00 | 0.00 | 76 | 1010.7 |
| 20260505073903 | 58 | 226 | 1.0 | 1.0 | 0.00 | 0.00 | 0.00 | 77 | 1010.6 |
| 20260505073401 | 58 | 225 | 1.0 | 1.0 | 0.00 | 0.00 | 0.00 | 77 | 1010.6 |
| 20260505072858 | 58 | 225 | 1.0 | 1.0 | 0.00 | 0.00 | 0.00 | 78 | 1010.6 |
| 20260505072354 | 57 | 225 | 0.0 | 1.0 | 0.00 | 0.00 | 0.00 | 78 | 1010.5 |
| 20260505071850 | 57 | 225 | 0.0 | 0.0 | 0.00 | 0.00 | 0.00 | 79 | 1010.6 |
| 20260505071346 | 57 | 225 | 0.0 | 0.0 | 0.00 | 0.00 | 0.00 | 79 | 1010.6 |
| 20260505070845 | 57 | 225 | 0.0 | 0.0 | 0.00 | 0.00 | 0.00 | 79 | 1010.6 |
| 20260505070341 | 57 | 225 | 0.0 | 0.0 | 0.00 | 0.00 | 0.00 | 79 | 1010.3 |
| 20260505065836 | 57 | 225 | 0.0 | 0.0 | 0.00 | 0.00 | 0.00 | 79 | 1010.6 |
| 20260505065333 | 57 | 225 | 0.0 | 0.0 | 0.00 | 0.00 | 0.00 | 79 | 1010.6 |
| 20260505064830 | 56 | 225 | 0.0 | 0.0 | 0.00 | 0.00 | 0.00 | 80 | 1010.4 |
| 20260505064327 | 56 | 225 | 0.0 | 0.0 | 0.00 | 0.00 | 0.00 | 80 | 1010.5 |
| 20260505063826 | 57 | 225 | 0.0 | 0.0 | 0.00 | 0.00 | 0.00 | 79 | 1010.7 |
| 20260505063321 | 57 | 225 | 0.0 | 0.0 | 0.00 | 0.00 | 0.00 | 79 | 1010.6 |
| 20260505062818 | 58 | 225 | 0.0 | 0.0 | 0.00 | 0.00 | 0.00 | 78 | 1010.5 |
| 20260505062316 | 59 | 225 | 0.0 | 0.0 | 0.00 | 0.00 | 0.00 | 76 | 1010.6 |
| 20260505061812 | 59 | 225 | 0.0 | 0.0 | 0.00 | 0.00 | 0.00 | 73 | 1010.6 |
| 20260505061310 | 60 | 225 | 0.0 | 0.0 | 0.00 | 0.00 | 0.00 | 72 | 1010.8 |
| 20260505060808 | 60 | 225 | 0.0 | 1.0 | 0.00 | 0.00 | 0.00 | 72 | 1010.6 |
| 20260505060304 | 60 | 225 | 0.0 | 0.0 | 0.00 | 0.00 | 0.00 | 72 | 1010.6 |
| 20260505055800 | 59 | 225 | 0.0 | 0.0 | 0.00 | 0.00 | 0.00 | 73 | 1010.6 |
| 20260505055256 | 59 | 225 | 0.0 | 1.0 | 0.00 | 0.00 | 0.00 | 74 | 1010.8 |
| 20260505054753 | 60 | 225 | 0.0 | 0.0 | 0.00 | 0.00 | 0.00 | 73 | 1010.6 |
| 20260505054251 | 61 | 225 | 0.0 | 0.0 | 0.00 | 0.00 | 0.00 | 70 | 1010.7 |
| 20260505053749 | 61 | 225 | 0.0 | 1.0 | 0.00 | 0.00 | 0.00 | 69 | 1010.4 |
| 20260505053246 | 62 | 225 | 1.0 | 1.0 | 0.00 | 0.00 | 0.00 | 68 | 1010.5 |
| 20260505052743 | 62 | 225 | 0.0 | 1.0 | 0.00 | 0.00 | 0.00 | 67 | 1010.5 |
| 20260505052240 | 62 | 225 | 1.0 | 1.0 | 0.00 | 0.00 | 0.00 | 66 | 1010.6 |
| 20260505051736 | 63 | 226 | 1.0 | 1.0 | 0.00 | 0.00 | 0.00 | 66 | 1010.6 |
| 20260505051234 | 63 | 227 | 1.0 | 1.0 | 0.00 | 0.00 | 0.00 | 66 | 1010.3 |
| 20260505050732 | 63 | 224 | 1.0 | 2.0 | 0.00 | 0.00 | 0.00 | 65 | 1010.7 |
| 20260505050230 | 63 | 219 | 1.0 | 1.0 | 0.00 | 0.00 | 0.00 | 65 | 1010.7 |
| 20260505041700 | 64 | 221 | 1.0 | 1.0 | 0.00 | 0.00 | 0.00 | 61 | 1010.5 |
| 20260505041157 | 65 | 216 | 2.0 | 2.0 | 0.00 | 0.00 | 0.00 | 61 | 1010.6 |
| 20260505040654 | 65 | 219 | 1.0 | 2.0 | 0.00 | 0.00 | 0.00 | 60 | 1010.7 |
| 20260505040152 | 65 | 226 | 1.0 | 1.0 | 0.00 | 0.00 | 0.00 | 60 | 1010.6 |
| 20260505035648 | 65 | 220 | 1.0 | 2.0 | 0.00 | 0.00 | 0.00 | 60 | 1010.7 |
| 20260505035144 | 65 | 224 | 2.0 | 2.0 | 0.00 | 0.00 | 0.00 | 59 | 1010.4 |
| 20260505034641 | 65 | 215 | 2.0 | 2.0 | 0.00 | 0.00 | 0.00 | 59 | 1010.5 |
| 20260505034138 | 65 | 212 | 2.0 | 2.0 | 0.00 | 0.00 | 0.00 | 60 | 1010.3 |
| 20260505033634 | 65 | 220 | 1.0 | 1.0 | 0.00 | 0.00 | 0.00 | 60 | 1010.2 |
| 20260505033133 | 65 | 220 | 1.0 | 1.0 | 0.00 | 0.00 | 0.00 | 60 | 1010.5 |
| 20260505032631 | 66 | 220 | 1.0 | 1.0 | 0.00 | 0.00 | 0.00 | 59 | 1010.4 |
| 20260505032127 | 66 | 231 | 1.0 | 2.0 | 0.00 | 0.00 | 0.00 | 59 | 1010.5 |
| 20260505031624 | 66 | 220 | 1.0 | 1.0 | 0.00 | 0.00 | 0.00 | 59 | 1010.4 |
| 20260505031120 | 66 | 217 | 1.0 | 1.0 | 0.00 | 0.00 | 0.00 | 58 | 1010.6 |
| 20260505030617 | 66 | 206 | 1.0 | 1.0 | 0.00 | 0.00 | 0.00 | 59 | 1010.6 |
| 20260505030113 | 66 | 194 | 0.0 | 1.0 | 0.00 | 0.00 | 0.00 | 59 | 1010.4 |
| 20260505025609 | 67 | 214 | 1.0 | 2.0 | 0.00 | 0.00 | 0.00 | 57 | 1010.5 |
| 20260505025108 | 67 | 224 | 1.0 | 1.0 | 0.00 | 0.00 | 0.00 | 56 | 1010.5 |
| 20260505024605 | 67 | 228 | 1.0 | 1.0 | 0.00 | 0.00 | 0.00 | 56 | 1010.6 |
| 20260505024102 | 67 | 216 | 1.0 | 1.0 | 0.00 | 0.00 | 0.00 | 56 | 1010.6 |
| 20260505023559 | 67 | 221 | 1.0 | 1.0 | 0.00 | 0.00 | 0.00 | 56 | 1010.5 |
| 20260505023057 | 68 | 214 | 0.0 | 1.0 | 0.00 | 0.00 | 0.00 | 55 | 1010.4 |
| 20260505022554 | 68 | 221 | 1.0 | 1.0 | 0.00 | 0.00 | 0.00 | 54 | 1010.6 |
| 20260505022051 | 68 | 221 | 1.0 | 1.0 | 0.00 | 0.00 | 0.00 | 54 | 1010.5 |
| 20260505021547 | 68 | 209 | 2.0 | 2.0 | 0.00 | 0.00 | 0.00 | 53 | 1010.4 |
| 20260505021044 | 68 | 188 | 2.0 | 2.0 | 0.00 | 0.00 | 0.00 | 53 | 1010.3 |
| 20260505020544 | 69 | 197 | 2.0 | 2.0 | 0.00 | 0.00 | 0.00 | 52 | 1010.3 |
| 20260505020041 | 69 | 204 | 1.0 | 2.0 | 0.00 | 0.00 | 0.00 | 52 | 1010.3 |
| 20260505015538 | 69 | 250 | 1.0 | 2.0 | 0.00 | 0.00 | 0.00 | 52 | 1010.3 |
| 20260505015035 | 69 | 204 | 1.0 | 1.0 | 0.00 | 0.00 | 0.00 | 52 | 1010.3 |
| 20260505014532 | 70 | 217 | 2.0 | 2.0 | 0.00 | 0.00 | 0.00 | 51 | 1010.1 |
| 20260505014029 | 70 | 219 | 2.0 | 2.0 | 0.00 | 0.00 | 0.00 | 50 | 1010.0 |
| 20260505013526 | 70 | 225 | 1.0 | 1.0 | 0.00 | 0.00 | 0.00 | 49 | 1010.2 |
| 20260505013024 | 71 | 217 | 1.0 | 2.0 | 0.00 | 0.00 | 0.00 | 49 | 1010.0 |
| 20260505012522 | 71 | 215 | 1.0 | 2.0 | 0.00 | 0.00 | 0.00 | 48 | 1009.9 |
| 20260505012019 | 71 | 214 | 2.0 | 2.0 | 0.00 | 0.00 | 0.00 | 48 | 1009.9 |
| 20260505011514 | 71 | 220 | 2.0 | 2.0 | 0.00 | 0.00 | 0.00 | 48 | 1009.9 |
| 20260505011011 | 71 | 197 | 2.0 | 2.0 | 0.00 | 0.00 | 0.00 | 47 | 1009.7 |
| 20260505010506 | 71 | 199 | 1.0 | 2.0 | 0.00 | 0.00 | 0.00 | 47 | 1009.7 |
| 20260505010003 | 71 | 204 | 1.0 | 1.0 | 0.00 | 0.00 | 0.00 | 47 | 1009.8 |
| 20260505005500 | 71 | 190 | 3.0 | 4.0 | 0.00 | 0.00 | 0.00 | 47 | 1009.6 |
| 20260505004957 | 71 | 175 | 3.0 | 3.0 | 0.00 | 0.00 | 0.00 | 46 | 1009.5 |
| 20260505004454 | 71 | 195 | 4.0 | 6.0 | 0.00 | 0.00 | 0.00 | 46 | 1009.5 |
| 20260505003950 | 72 | 193 | 2.0 | 2.0 | 0.00 | 0.00 | 0.00 | 46 | 1009.4 |
| 20260505003448 | 72 | 196 | 1.0 | 1.0 | 0.00 | 0.00 | 0.00 | 45 | 1009.5 |
| 20260505002944 | 72 | 226 | 3.0 | 3.0 | 0.00 | 0.00 | 0.00 | 45 | 1009.2 |
| 20260505002440 | 72 | 211 | 1.0 | 2.0 | 0.00 | 0.00 | 0.00 | 45 | 1009.4 |
| 20260505001939 | 72 | 208 | 2.0 | 2.0 | 0.00 | 0.00 | 0.00 | 44 | 1009.4 |
| 20260505001436 | 72 | 191 | 2.0 | 3.0 | 0.00 | 0.00 | 0.00 | 45 | 1009.3 |
| 20260505000933 | 72 | 200 | 2.0 | 2.0 | 0.00 | 0.00 | 0.00 | 44 | 1009.4 |
| 20260505000431 | 72 | 190 | 2.0 | 2.0 | 0.00 | 0.00 | 0.00 | 44 | 1009.3 |
| 20260504235927 | 72 | 165 | 1.0 | 1.0 | 0.00 | 0.00 | 0.00 | 44 | 1009.2 |
| 20260504235425 | 72 | 207 | 1.0 | 2.0 | 0.00 | 0.00 | 0.00 | 43 | 1009.2 |
| 20260504234921 | 73 | 193 | 1.0 | 2.0 | 0.00 | 0.00 | 0.00 | 43 | 1009.2 |
| 20260504234419 | 73 | 193 | 1.0 | 1.0 | 0.00 | 0.00 | 0.00 | 44 | 1009.3 |
| 20260504233915 | 73 | 181 | 1.0 | 1.0 | 0.00 | 0.00 | 0.00 | 43 | 1009.2 |
| 20260504233411 | 73 | 166 | 2.0 | 2.0 | 0.00 | 0.00 | 0.00 | 43 | 1009.2 |
| 20260504232908 | 73 | 170 | 2.0 | 2.0 | 0.00 | 0.00 | 0.00 | 43 | 1009.1 |
| 20260504232405 | 73 | 192 | 1.0 | 2.0 | 0.00 | 0.00 | 0.00 | 42 | 1009.1 |
| 20260504231902 | 74 | 165 | 3.0 | 3.0 | 0.00 | 0.00 | 0.00 | 41 | 1009.2 |
| 20260504231358 | 74 | 202 | 2.0 | 3.0 | 0.00 | 0.00 | 0.00 | 42 | 1009.0 |
| 20260504230854 | 75 | 192 | 1.0 | 1.0 | 0.00 | 0.00 | 0.00 | 40 | 1008.9 |
| 20260504230352 | 75 | 194 | 1.0 | 2.0 | 0.00 | 0.00 | 0.00 | 39 | 1009.0 |
| 20260504225850 | 75 | 210 | 2.0 | 3.0 | 0.00 | 0.00 | 0.00 | 40 | 1009.0 |
| 20260504225347 | 76 | 141 | 3.0 | 4.0 | 0.00 | 0.00 | 0.00 | 40 | 1009.1 |
| 20260504224844 | 76 | 214 | 2.0 | 2.0 | 0.00 | 0.00 | 0.00 | 38 | 1009.0 |
| 20260504224341 | 77 | 184 | 3.0 | 4.0 | 0.00 | 0.00 | 0.00 | 37 | 1009.2 |